Preview of NWS' New Version of Forecast
This preview is not operational and should not be used for support decisions.
Latest weather observations around

Barre / Montpelier, Knapp State Airport (KMPV)

Using English Units (Switch to International System of Units)
Date/ Time (EDT) Wind (mph) Vis. (mi) Weather Sky Cond. Temp (°F) Rel. Humidity Wind Chill (°F) Heat Index (°F) Pressure Precip. (in)
Air Dwpt 6 hour Altimeter (inHg) Sea level (inHg) 1 hr 3 hr 6 hr
Max Min
Aug 21 06:51 Calm 10 Clear CLR 56 55     97%       30.01      
Aug 21 05:51 Calm 10 Clear CLR 54 54     100%       30.01      
Aug 21 04:51 Calm 10 Clear CLR 55 54     96%       30.02      
Aug 21 03:51 Calm 10 Clear CLR 55 55     100%       30.03      
Aug 21 02:51 ENE 3 10 Clear CLR 57 55     93%       30.04      
Aug 21 01:51 Calm 10 Clear CLR 56 54     93%       30.05      
Aug 21 00:51 S 3 10 Clear CLR 56 55     97%       30.08      
Aug 20 23:51 Calm 10 Clear CLR 58 55     90%       30.07      
Aug 20 22:51 Calm 10 Clear CLR 60 55     83%       30.07      
Aug 20 21:51 5 10 Clear CLR 64 57     78%       30.08      
Aug 20 20:51 SSW 5 10 Clear CLR 70 51     51%       30.07      
Aug 20 19:51 SW 3 10 Clear CLR 68 57     68%       30.07      
Aug 20 18:51 SSW 5 10 Clear CLR 75 57     54%   75   30.06      
Aug 20 17:51 WSW 3 10 Clear CLR 78 51     39%   77   30.08      
Aug 20 16:51 WSW 6 10 Clear CLR 79 55     44%   79   30.09      
Aug 20 15:51 W 6 10 Clear CLR 80 56     44%   80   30.09      
Aug 20 14:51 NW 6 10 Clear CLR 79 55     44%   79          
Aug 20 13:51 E 5 10 Clear CLR 79 52     39%   78   30.09      
Aug 20 12:51 SW 8 10 Clear CLR 76 52     43%   75          
Aug 20 11:51 Calm 10 Clear CLR 74 51     45%   73          
Aug 20 10:51 E 5 10 Clear CLR 73 54     51%   72   30.14      
Aug 20 10:29 Calm 10 Clear CLR 72 56     57%   72          
Aug 20 10:21 Calm 1.25 Haze CLR 71 55     57%   71          
Aug 20 09:51 Calm 10 Clear CLR 70 56     61%       30.14      
Aug 20 08:51 Calm 10 Clear CLR 66 58     75%       30.14      
Aug 20 07:51 Calm 10 Clear CLR 63 58     84%       30.14      
Aug 20 06:51 Calm 10 Clear CLR 58 56     93%       30.13      
Aug 20 05:51 E 3 10 Clear CLR 57 56     96%       30.11      
Aug 20 04:51 W 3 10 Clear CLR 61 56     83%       30.09      
Aug 20 03:51 W 5 10 Clear CLR 62 56     80%       30.08      
Aug 20 02:51 Calm 10 Clear CLR 61 56     83%       30.06      
Aug 20 01:51 W 8 10 Clear   67 57     71%       30.05      
Aug 20 00:51 Calm 10 Clear CLR 63 58     84%       30.05      
Aug 19 23:51 W 6 10 Clear CLR 69 58     68%       30.03      
Aug 19 22:51 W 5 10 Clear CLR 69 59     70%       30.03      
Aug 19 21:51 W 5 10 Mostly Cloudy BKN065 73 58     59%   73   30.02      
Aug 19 20:51 W 5 10 Clear CLR 74 60     62%   74          
Aug 19 19:51 WSW 6 10 Partly Cloudy SCT055 76 63     64%   76   29.96      
Aug 19 18:51 SW 6 10 Mostly Clear FEW055 78 64     62%   79   29.93      
Aug 19 17:51 WSW 6 10 Mostly Cloudy SCT045 BKN055 79 64     60%   79   29.93      
Aug 19 16:51   10 Clear CLR 80 66     62%   82   29.92      
Aug 19 15:51 SW 6 10 Mostly Clear FEW045 78 65     64%   79   29.94      
Aug 19 14:51 SW 9 10 Mostly Cloudy FEW041 BKN085 79 65     62%   80          
Aug 19 13:51 WSW 11 10 Partly Cloudy SCT120 80 64     58%   82         0
Aug 19 12:51 W 7 10 Mostly Clear FEW110 78 65     64%   79   29.95      
Aug 19 11:51 SW 11 10 Mostly Clear FEW110 78 66     67%   79   29.95      
Aug 19 10:51 S 6 10 Clear CLR 76 68     76%   77       0  
Aug 19 09:51 SSW 5 10 Mostly Clear FEW080 FEW120 69 67     93%       29.95 0    
Aug 19 08:51 SSE 5 10 Mostly Cloudy BKN070 BKN090 BKN110 70 66     87%              
Aug 19 07:51 SSW 3 10 Mostly Cloudy FEW009 SCT065 BKN080 69 66     90%       29.98      
Aug 19 07:12 S 7 10 Partly Cloudy SCT007 68 66     93%              
Aug 19 06:51 SSE 6 10 Mostly Cloudy BKN007 68 66     93%              
Aug 19 05:51 Calm 10 Mostly Clear FEW002 65 65     100%       29.96      
Aug 19 05:46 Calm 4 Fog/Mist FEW002 64 64     100%              
Aug 19 05:44 Calm 1.75 Fog/Mist FEW002 65 65     100%              
Aug 19 05:42 Calm 1 Fog/Mist VV002 65 65     100%              
Aug 19 05:33 ENE 3 0.75 Fog/Mist SCT002 BKN050 65 65     100%              
Aug 19 05:31 Calm 1.25 Fog/Mist SCT002 SCT050 65 65     100%              
Aug 19 05:29 ENE 3 2.5 Fog/Mist FEW002 SCT050 65 65     100%              
Aug 19 04:51 SSW 5 10 Partly Cloudy SCT050 67 66     97%       29.96      
Aug 19 03:51 SSW 7 10 Clear CLR 67 66     97%       29.96      
Aug 19 03:10 S 3 3 Fog/Mist FEW001 FEW029 65 65     100%              
Aug 19 03:05 Calm 1.5 Fog/Mist FEW001 SCT029 65 65     100%              
Aug 19 03:02 Calm 0.75 Fog/Mist FEW001 SCT029 65 65     100%              
Aug 19 02:56 E 3 1.25 Fog/Mist FEW001 65 65     100%              
Aug 19 02:54 ENE 3 2.5 Fog/Mist FEW001 66 65     96%              
Aug 19 02:51 E 6 10 Clear CLR 66 65     96%              
Aug 19 02:35 Calm 7 Mostly Clear FEW001 65 65     100%              
Aug 19 02:19 NW 3 2 Fog/Mist SCT001 65 65     100%              
Aug 19 01:51 Calm 10 Clear CLR 66 66     100%       29.92     0
Aug 19 00:51 SE 3 10 Mostly Cloudy FEW030 SCT050 BKN100 68 67     96%              
Aug 18 23:51 Calm 10 Cloudy BKN050 OVC065 68 66     93%         0    
Aug 18 22:51 Calm 10 Mostly Cloudy FEW046 BKN060 68 66     93%              
Aug 18 21:51 Calm 10 Cloudy OVC070 70 66     87%              
Aug 18 20:51 Calm 10 Cloudy BKN070 OVC085 69 66     90%              
Aug 18 19:51 S 3 10 Clear CLR 70 64     81%              
Aug 18 18:51 SSW 5 10 Mostly Cloudy FEW085 BKN110 75 62     64%   75   30      
Aug 18 17:51 S 5 10 Mostly Cloudy BKN080 BKN095 78 63     60%   78   30      
Aug 18 16:51 5 10 Mostly Cloudy FEW047 BKN085 79 62     56%   79          
Aug 18 15:51 5 10 Mostly Clear FEW040 80 65     60%   82   30.01      
Aug 18 14:51 S 6 10 Mostly Clear FEW042 80 65     60%   82   30.03      
Aug 18 13:51 3 10 Mostly Clear FEW033 FEW049 79 64     60%   79   30.04      
Aug 18 12:51 3 10 Mostly Cloudy BKN030 BKN035 77 65     66%   78   30.03      
Aug 18 12:23 WSW 3 10 Mostly Cloudy FEW024 BKN034 73 64     73%   73          
Aug 18 12:16 Calm 10 Mostly Cloudy BKN024 BKN036 74 65     74%   74          
Aug 18 12:07 N 3 10 Mostly Cloudy SCT024 BKN032 74 66     76%   75          
Aug 18 11:51 3 10 Mostly Cloudy BKN024 BKN030 73 65     76%   74   30.06      
Aug 18 11:38 Calm 10 Mostly Cloudy BKN022 73 65     76%   74          
Aug 18 10:51 Calm 10 Mostly Clear FEW010 70 67     90%       30.07      
Aug 18 10:19 Calm 10 Cloudy FEW004 OVC032 68 65     90%              
Aug 18 09:51 WNW 5 10 Cloudy OVC004 65 64     97%       30.09      
Aug 18 08:51 Calm 10 Cloudy OVC003 64 63     96%       30.08      
Aug 18 08:02 Calm 5 Fog/Mist OVC001 62 62     100%              
May 15 09:51 W 3 7 Light Rain BKN035 OVC090 63 62     97%       29.79 0    
May 14 20:51 S 6 10 Clear CLR 66 50     56%       29.87      
May 14 11:51 Calm 10 Clear CLR 68 47     47%       29.94      
May 13 21:51 S 10 10 Clear CLR 57 37     47%       30.03      
May 13 16:51 SE 10 10 Clear CLR 69 31     24%       30.04      
May 13 00:51 Calm 10 Clear CLR 40 35     83%       30.19      
May 12 16:51 S 8 10 Clear   60 30     32%       30.09      
May 12 12:51 SSW 7 10 Clear CLR 56 26     31%       30.17      
May 12 08:51 3 10 Clear CLR 44 33     65% 43     30.26      
May 11 14:51 NW 10 10 Clear CLR 51 25     36%       30.1      
May 11 13:51 WNW 17 10 Clear CLR 49 23     36% 43     30.1      
Jun 11 20:51 NW 3 10 Clear CLR 78 62     58%   78   29.92      
Jun 10 21:51 S 6 10 Clear CLR 69 57     65%       29.96      
Jun 10 18:51 SW 10 10 Partly Cloudy SCT100 75 57     54%   75   29.93      
Jun 10 17:51 SW 7 10 Clear CLR 76 56     50%   76   29.93      
Jun 10 05:15 Calm 2 Fog/Mist BKN001 48 48     100%              
Notice The following observation data may not be complete
Jun 10 05:10   10 Partly Cloudy SCT001          %              
Jun 08 20:51 S 10 10 Clear CLR 68 51     55%       29.88      
Jun 07 21:51 Calm 10 Clear CLR 55 48     77%       30.05      
Jun 07 12:51 N 13 10 Clear CLR 68 48     49%       30.03      
Jun 06 11:51 NE 6 6 Light Rain and Fog/Mist BKN006 OVC050 49 49     100% 46     29.92 0    
Jun 05 19:51 SSE 8 10 Cloudy OVC020 54 49     83%       29.91 0   0
Jun 05 16:51 SSE 10 10 Cloudy OVC018 56 52     87%       29.89   0